CW0783 Weather Reports


time (UTC)temp
C
wind
direction
speed
KPH
gust
KPH
rain 1hr
cm
rain 24hr
cm
rain mn
cm
humidity
%
barometer
mb
20260505153349 10 298 1.6 4.8 0.00 0.08 0.08 81 1010.3
20260505152846 8 185 0.0 4.8 0.00 0.08 0.08 81 1010.3
20260505152344 7 346 3.2 3.2 0.18 0.08 0.08 85 1010.3
20260505151843 7 167 0.0 0.0 0.18 0.08 0.08 85 1010.4
20260505151340 7 310 3.2 4.8 0.00 0.05 0.05 85 1010.3
20260505150837 7 213 0.0 1.6 0.00 0.05 0.05 85 1010.1
20260505150335 7 349 1.6 3.2 0.00 0.05 0.05 85 1009.8
20260505140304 6 256 1.6 3.2 0.13 0.05 0.05 82 1011.2
20260505130228 8 15 4.8 9.7 0.00 0.00 0.00 60 1009.9
20260505124718 8 325 1.6 4.8 0.00 0.00 0.00 64 1009.7
20260505124215 9 252 3.2 6.4 0.00 0.00 0.00 65 1010.0
20260505123711 9 346 1.6 6.4 0.00 0.00 0.00 65 1009.8
20260505123208 9 338 6.4 9.7 0.00 0.00 0.00 65 1009.6
20260505122705 9 329 3.2 4.8 0.00 0.00 0.00 65 1009.3
20260505122202 9 277 4.8 6.4 0.00 0.00 0.00 64 1009.2
20260505121658 9 339 4.8 6.4 0.00 0.00 0.00 64 1008.9
20260505121155 10 48 1.6 6.4 0.00 0.00 0.00 66 1008.6
20260505120651 10 120 0.0 6.4 0.00 0.00 0.00 64 1008.5
20260505120147 10 146 1.6 9.7 0.00 0.00 0.00 63 1008.4
20260505115641 10 171 1.6 6.4 0.00 0.00 0.00 67 1008.5
20260505115139 10 116 0.0 3.2 0.00 0.00 0.00 66 1008.4
20260505114636 10 234 1.6 1.6 0.00 0.00 0.00 67 1008.6
20260505114132 10 315 0.0 0.0 0.00 0.00 0.00 67 1008.7
20260505113628 9 113 0.0 0.0 0.00 0.00 0.00 67 1008.3
20260505113125 9 32 0.0 0.0 0.00 0.00 0.00 70 1007.6
20260505112621 9 93 0.0 0.0 0.00 0.00 0.00 71 1007.2
20260505112120 9 78 1.6 1.6 0.00 0.00 0.00 71 1007.0
20260505111619 10 111 0.0 0.0 0.00 0.00 0.00 73 1007.5
20260505111115 10 108 0.0 0.0 0.00 0.00 0.00 71 1007.5
20260505110612 10 130 0.0 1.6 0.00 0.00 0.00 68 1007.6
20260505110109 10 336 0.0 1.6 0.00 0.00 0.00 68 1007.8
20260505102045 10 95 0.0 0.0 0.00 0.00 0.00 65 1007.6
20260505101543 10 346 1.6 3.2 0.00 0.00 0.00 64 1007.9
20260505101039 10 185 0.0 1.6 0.00 0.00 0.00 66 1007.6
20260505100536 10 324 0.0 3.2 0.00 0.00 0.00 63 1007.7
20260505100033 11 9 1.6 3.2 0.00 0.00 0.00 64 1007.8
20260505095529 11 146 0.0 3.2 0.00 0.00 0.00 65 1007.5
20260505095025 11 314 3.2 3.2 0.00 0.00 0.00 66 1007.6
20260505094522 11 286 3.2 6.4 0.00 0.00 0.00 65 1007.5
20260505094018 11 180 0.0 3.2 0.00 0.00 0.00 69 1007.1
20260505093515 11 276 4.8 4.8 0.00 0.00 0.00 80 1007.2
20260505093012 12 349 0.0 0.0 0.00 0.00 0.00 93 1006.9
20260505092510 12 355 0.0 0.0 0.00 0.00 0.00 93 1006.8
20260505092008 11 302 0.0 1.6 0.00 0.00 0.00 94 1006.7
20260505091504 11 321 0.0 0.0 0.00 0.00 0.00 94 1006.4
20260505091003 11 186 0.0 0.0 0.00 0.00 0.00 93 1005.8
20260505090500 12 194 0.0 0.0 0.00 0.00 0.00 93 1006.0
20260505085957 12 115 0.0 0.0 0.00 0.00 0.00 93 1006.1
20260505085455 12 212 0.0 0.0 0.00 0.00 0.00 93 1006.0
20260505084953 12 226 0.0 0.0 0.00 0.00 0.00 92 1006.0
20260505084452 12 276 0.0 0.0 0.00 0.00 0.00 92 1005.8
20260505083949 12 145 0.0 0.0 0.00 0.00 0.00 92 1005.1
20260505083446 12 202 0.0 0.0 0.00 0.00 0.00 91 1005.4
20260505082942 12 166 0.0 0.0 0.00 0.00 0.00 92 1005.5
20260505082438 12 256 0.0 0.0 0.00 0.00 0.00 91 1005.8
20260505081935 12 209 0.0 0.0 0.00 0.00 0.00 91 1005.3
20260505081432 12 232 0.0 0.0 0.00 0.00 0.00 92 1005.3
20260505080928 12 226 0.0 0.0 0.00 0.00 0.00 92 1005.3
20260505080425 12 218 0.0 0.0 0.00 0.00 0.00 92 1005.4
20260505075920 12 233 0.0 0.0 0.00 0.00 0.00 92 1005.2
20260505075417 12 224 0.0 0.0 0.00 0.00 0.00 92 1004.8
20260505074915 12 213 0.0 0.0 0.00 0.00 0.00 92 1004.7
20260505074412 12 214 0.0 0.0 0.00 0.00 0.00 92 1004.5
20260505073909 12 226 0.0 0.0 0.00 0.00 0.00 93 1004.6
20260505073407 12 223 0.0 0.0 0.00 0.00 0.00 93 1004.7
20260505072904 12 197 0.0 0.0 0.00 0.00 0.00 94 1004.8
20260505072359 12 219 0.0 0.0 0.00 0.00 0.00 94 1004.8
20260505071856 12 246 1.6 1.6 0.00 0.00 0.00 94 1004.6
20260505071352 12 211 1.6 3.2 0.00 0.00 0.00 93 1004.4
20260505070851 12 195 0.0 0.0 0.00 0.00 0.00 93 1004.1
20260505070346 12 188 0.0 0.0 0.00 0.00 0.00 92 1004.0
20260505065842 12 197 0.0 0.0 0.00 0.00 0.00 92 1004.3
20260505065339 12 197 0.0 0.0 0.00 0.00 0.00 92 1004.3
20260505064836 12 203 0.0 0.0 0.00 0.00 0.00 91 1004.2
20260505064333 12 203 0.0 0.0 0.00 0.00 0.00 91 1004.2
20260505063831 12 213 0.0 1.6 0.00 0.00 0.00 91 1004.1
20260505063327 12 211 1.6 3.2 0.00 0.00 0.00 91 1004.1
20260505062824 12 202 3.2 3.2 0.00 0.00 0.00 91 1003.8
20260505062321 12 223 0.0 0.0 0.00 0.00 0.00 90 1003.7
20260505061818 12 212 1.6 1.6 0.00 0.00 0.00 90 1003.9
20260505061316 12 208 0.0 1.6 0.00 0.00 0.00 90 1003.8
20260505060813 13 215 3.2 3.2 0.00 0.00 0.00 89 1003.4
20260505060310 13 214 0.0 0.0 0.00 0.00 0.00 89 1003.3
20260505055806 13 212 0.0 0.0 0.00 0.00 0.00 88 1003.2
20260505055303 13 251 1.6 1.6 0.00 0.00 0.00 89 1003.2
20260505054759 13 246 1.6 3.2 0.00 0.00 0.00 89 1003.4
20260505054257 13 226 0.0 0.0 0.00 0.00 0.00 89 1003.3
20260505053755 13 248 1.6 3.2 0.00 0.00 0.00 88 1003.5
20260505053251 13 241 1.6 4.8 0.00 0.00 0.00 88 1003.5
20260505052749 13 215 3.2 6.4 0.00 0.00 0.00 88 1003.4
20260505052245 13 215 3.2 4.8 0.00 0.00 0.00 88 1003.6
20260505051742 13 188 4.8 9.7 0.00 0.00 0.00 88 1003.4
20260505051240 13 202 6.4 6.4 0.00 0.00 0.00 88 1003.7
20260505050738 13 301 3.2 6.4 0.00 0.00 0.00 88 1003.5
20260505050236 13 232 3.2 6.4 0.00 0.00 0.00 88 1003.3
20260505041706 14 243 4.8 6.4 0.00 0.97 0.97 87 1003.1
20260505041203 14 225 3.2 12.9 0.00 0.97 0.97 88 1003.5
20260505040700 13 248 6.4 6.4 0.00 0.97 0.97 91 1003.5
20260505040157 13 235 3.2 9.7 0.00 0.97 0.97 92 1003.1
20260505035654 13 217 3.2 4.8 0.00 0.97 0.97 92 1002.9
20260505035150 13 229 3.2 3.2 0.18 0.97 0.97 92 1002.7
20260505034647 13 231 3.2 3.2 0.18 0.97 0.97 92 1002.3
20260505034144 13 189 1.6 3.2 0.00 0.94 0.94 93 1001.9
20260505033640 13 194 6.4 9.7 0.00 0.94 0.94 94 1002.2
20260505033139 13 201 4.8 6.4 0.00 0.94 0.94 94 1002.4
20260505032637 13 202 3.2 4.8 0.00 0.94 0.94 94 1002.8
20260505032132 13 170 0.0 0.0 0.00 0.94 0.94 94 1002.9
20260505031630 13 188 0.0 0.0 0.00 0.94 0.94 94 1002.8
20260505031126 13 175 0.0 0.0 0.00 0.94 0.94 93 1002.8
20260505030623 13 183 0.0 0.0 0.00 0.94 0.94 93 1003.1
20260505030119 13 181 0.0 0.0 0.00 0.94 0.94 92 1003.0
20260505025615 13 85 0.0 0.0 0.00 0.94 0.94 91 1003.1
20260505025114 13 212 0.0 1.6 0.30 0.94 0.94 90 1003.6
20260505024611 13 227 0.0 3.2 0.61 0.94 0.94 89 1003.5
20260505024108 13 232 3.2 6.4 0.43 0.89 0.89 89 1003.7
20260505023605 13 248 3.2 16.1 0.43 0.84 0.84 90 1004.0
20260505023103 13 217 11.3 14.5 0.30 0.79 0.79 90 1004.0
20260505022600 13 245 6.4 11.3 0.30 0.76 0.76 90 1003.8
20260505022057 13 201 9.7 14.5 0.30 0.74 0.74 91 1003.9
20260505021553 13 235 6.4 6.4 0.48 0.71 0.71 90 1003.5
20260505021050 13 231 6.4 9.7 0.48 0.69 0.69 89 1003.5
20260505020550 13 227 6.4 12.9 0.18 0.64 0.64 88 1003.5
20260505020047 14 213 8.0 17.7 0.30 0.61 0.61 87 1004.0
20260505015544 14 250 9.7 16.1 1.19 0.58 0.58 85 1003.6
20260505015041 15 249 14.5 22.5 0.89 0.53 0.53 82 1003.0
20260505014538 15 226 4.8 12.9 0.18 0.38 0.38 82 1003.4
20260505014035 16 226 3.2 9.7 0.18 0.38 0.38 80 1002.5
20260505013532 16 270 6.4 12.9 1.07 0.36 0.36 80 1002.3
20260505013029 16 315 8.0 14.5 1.98 0.33 0.33 80 1002.8
20260505012527 19 183 3.2 17.7 1.07 0.18 0.18 73 1002.8
20260505012024 20 300 11.3 24.1 0.00 0.00 0.00 61 1002.0
20260505011519 22 257 11.3 16.1 0.00 0.00 0.00 55 1002.3
20260505011017 22 270 8.0 14.5 0.00 0.00 0.00 53 1001.1
20260505010512 22 237 4.8 14.5 0.00 0.00 0.00 53 1001.5
20260505010009 22 254 6.4 11.3 0.00 0.00 0.00 53 1001.3
20260505005506 22 243 6.4 11.3 0.00 0.00 0.00 53 1001.1
20260505005004 22 225 3.2 9.7 0.00 0.00 0.00 52 1001.4
20260505004500 22 225 6.4 11.3 0.00 0.00 0.00 52 1001.2
20260505003956 22 216 8.0 12.9 0.00 0.00 0.00 51 1001.3
20260505003454 22 252 9.7 14.5 0.00 0.00 0.00 51 1001.1
20260505002950 22 209 9.7 12.9 0.00 0.00 0.00 51 1000.9
20260505002446 22 228 11.3 16.1 0.00 0.00 0.00 50 1000.6
20260505001945 22 287 9.7 22.5 0.00 0.00 0.00 50 1000.3
20260505001442 22 223 6.4 12.9 0.00 0.00 0.00 51 1000.3
20260505000939 20 289 6.4 11.3 0.00 0.00 0.00 54 1000.7
20260505000437 20 351 1.6 1.6 0.00 0.00 0.00 53 1000.7
20260504235933 20 171 3.2 3.2 0.00 0.00 0.00 52 1000.7
20260504235431 21 151 0.0 3.2 0.00 0.00 0.00 49 1000.6
20260504234927 23 305 8.0 12.9 0.00 0.00 0.00 45 1001.1
20260504234424 23 239 8.0 12.9 0.00 0.00 0.00 47 1000.8
20260504233921 23 231 9.7 17.7 0.00 0.00 0.00 47 1000.9
20260504233417 23 242 8.0 11.3 0.00 0.00 0.00 47 1001.0
20260504232913 23 256 8.0 16.1 0.00 0.00 0.00 47 1000.9
20260504232411 23 260 8.0 12.9 0.00 0.00 0.00 48 1000.8
20260504231908 23 271 8.0 16.1 0.00 0.00 0.00 47 1001.0
20260504231404 23 250 9.7 12.9 0.00 0.00 0.00 47 1000.7
20260504230900 23 208 16.1 20.9 0.00 0.00 0.00 47 1000.5
20260504230357 23 252 12.9 17.7 0.00 0.00 0.00 48 1000.5
20260504225856 23 235 4.8 14.5 0.00 0.00 0.00 47 1000.7
20260504225352 23 230 11.3 17.7 0.00 0.00 0.00 47 1000.4
20260504224850 23 185 9.7 24.1 0.00 0.00 0.00 46 1000.3
20260504224346 23 209 9.7 17.7 0.00 0.00 0.00 46 1000.5
20260504223843 23 189 16.1 20.9 0.00 0.00 0.00 45 1000.6
20260504223339 23 217 9.7 27.4 0.00 0.00 0.00 46 1000.5
20260504222835 23 269 16.1 24.1 0.00 0.00 0.00 44 1000.8
20260504222332 24 224 11.3 20.9 0.00 0.00 0.00 46 1000.9
20260504221831 24 241 6.4 17.7 0.00 0.00 0.00 48 1000.8
20260504221327 24 218 9.7 17.7 0.00 0.00 0.00 47 1001.1
20260504220824 24 276 9.7 20.9 0.00 0.00 0.00 50 1000.8
20260504220321 23 199 14.5 22.5 0.00 0.00 0.00 50 1001.0
20260504215819 24 226 11.3 16.1 0.00 0.00 0.00 51 1001.1
20260504215315 24 219 8.0 24.1 0.00 0.00 0.00 52 1001.1
20260504214811 23 210 9.7 27.4 0.00 0.00 0.00 52 1000.9
20260504214308 23 248 16.1 22.5 0.00 0.00 0.00 52 1001.3
20260504213804 23 204 19.3 29.0 0.00 0.00 0.00 50 1001.4
20260504213300 23 231 9.7 20.9 0.00 0.00 0.00 51 1001.5
20260504212758 23 196 12.9 17.7 0.00 0.00 0.00 50 1001.3
20260504212254 23 239 9.7 14.5 0.00 0.00 0.00 49 1001.8
20260504211752 23 250 14.5 33.8 0.00 0.00 0.00 48 1001.5
20260504211247 23 250 12.9 24.1 0.00 0.00 0.00 50 1001.6
20260504210745 23 253 16.1 20.9 0.00 0.00 0.00 48 1001.5
20260504210242 24 290 9.7 22.5 0.00 0.00 0.00 48 1001.4
20260504205739 25 233 9.7 22.5 0.00 0.00 0.00 46 1001.4
20260504205237 24 238 8.0 17.7 0.00 0.00 0.00 43 1001.4
20260504204735 24 267 14.5 17.7 0.00 0.00 0.00 41 1001.6
20260504204233 24 206 8.0 12.9 0.00 0.00 0.00 42 1001.5
20260504203732 25 248 12.9 25.7 0.00 0.00 0.00 41 1001.5
20260504203229 25 217 12.9 17.7 0.00 0.00 0.00 41 1001.4
20260504202729 25 228 12.9 14.5 0.00 0.00 0.00 43 1001.7
20260504202227 25 241 9.7 16.1 0.00 0.00 0.00 41 1001.7
20260504201724 25 219 6.4 14.5 0.00 0.00 0.00 43 1001.6
20260504201221 25 264 9.7 16.1 0.00 0.00 0.00 42 1001.7
20260504200718 25 243 9.7 16.1 0.00 0.00 0.00 40 1001.5
20260504200214 25 277 9.7 22.5 0.00 0.00 0.00 40 1001.5
20260504195711 25 215 14.5 22.5 0.00 0.00 0.00 40 1001.6
20260504195207 25 269 9.7 27.4 0.00 0.00 0.00 42 1001.5
20260504194704 25 245 14.5 30.6 0.00 0.00 0.00 39 1001.7
20260504194200 25 212 11.3 17.7 0.00 0.00 0.00 42 1001.5
20260504193656 25 194 16.1 24.1 0.00 0.00 0.00 40 1001.6
20260504193154 25 247 11.3 17.7 0.00 0.00 0.00 41 1001.7
20260504192652 25 252 16.1 25.7 0.00 0.00 0.00 40 1001.7
20260504192150 26 236 9.7 22.5 0.00 0.00 0.00 40 1001.8
20260504191648 25 235 4.8 16.1 0.00 0.00 0.00 40 1001.8
20260504191144 25 184 12.9 22.5 0.00 0.00 0.00 39 1001.6
20260504190640 25 243 8.0 20.9 0.00 0.00 0.00 38 1001.7
20260504190137 25 215 16.1 17.7 0.00 0.00 0.00 39 1002.0
20260504185633 25 237 9.7 16.1 0.00 0.00 0.00 39 1002.0
20260504185130 25 263 17.7 33.8 0.00 0.00 0.00 38 1002.0
20260504184626 25 226 12.9 30.6 0.00 0.00 0.00 39 1002.0
20260504184121 25 242 11.3 24.1 0.00 0.00 0.00 42 1002.2
20260504183619 25 258 9.7 22.5 0.00 0.00 0.00 40 1002.3
20260504183116 25 261 6.4 24.1 0.00 0.00 0.00 43 1002.5
20260504182614 25 251 11.3 14.5 0.00 0.00 0.00 42 1002.6
20260504182111 25 251 8.0 14.5 0.00 0.00 0.00 41 1002.5
20260504181608 25 212 4.8 16.1 0.00 0.00 0.00 45 1002.6
20260504181105 25 231 8.0 14.5 0.00 0.00 0.00 44 1002.5
20260504180604 25 234 6.4 11.3 0.00 0.00 0.00 43 1002.8
20260504180103 24 256 9.7 17.7 0.00 0.00 0.00 47 1002.6
20260504175600 24 266 9.7 12.9 0.00 0.00 0.00 47 1002.7
20260504175056 24 253 4.8 16.1 0.00 0.00 0.00 49 1002.8
20260504174555 23 235 9.7 20.9 0.00 0.00 0.00 50 1002.8
20260504174051 23 282 6.4 12.9 0.00 0.00 0.00 49 1002.8
20260504173548 23 252 6.4 9.7 0.00 0.00 0.00 50 1003.0
20260504173045 23 218 8.0 16.1 0.00 0.00 0.00 51 1003.1
20260504172541 23 229 12.9 14.5 0.00 0.00 0.00 49 1003.2
20260504172038 23 264 6.4 14.5 0.00 0.00 0.00 52 1003.4
20260504171535 23 215 9.7 12.9 0.00 0.00 0.00 50 1003.4
20260504171032 23 252 6.4 9.7 0.00 0.00 0.00 48 1003.2
20260504170528 23 212 8.0 9.7 0.00 0.00 0.00 52 1003.4